Home   Weather   Hannover   Past weeks
Flag for Germany

Past Weather in Hannover, Lower Saxony, Germany — Yesterday and Last 2 Weeks

Now
43 °F

Passing clouds.


Feels Like: 38 °F
Forecast: 44 / 37 °F
Wind: 8 mph from South

Location: Hannover

Current Time: Jan 27, 2020 at 11:33:54 pm

Latest Report: Jan 27, 2020 at 10:50 pm


Visibility: N/A

Pressure: 29.50 "Hg

Humidity: 87%

Dew Point: 39 °F

Location of HannoverLocation

Past Weather in Hannover — Graph

°F

Hannover Temperature Yesterday

Maximum temperature yesterday: 43 °F (at 3:20 pm)
Minimum temperature yesterday: 32 °F (at 12:20 am)
Average temperature yesterday: 37 °F

High & Low Weather Summary for the Past Weeks

 TemperatureHumidityPressure
High55 °F (Jan 15, 10:50 am)100% (Jan 19, 4:50 am)30.92 "Hg (Jan 19, 4:50 am)
Low25 °F (Jan 24, 3:50 am)55% (Jan 15, 2:50 pm)29.50 "Hg (Jan 27, 10:20 pm)
Average41 °F85%30.23 "Hg
* Reported Jan 12 10:20 pm — Jan 27 10:20 pm, Hannover. Weather by CustomWeather, © 2020

Note: Actual official high and low records may vary slightly from our data, if they occured in-between our weather recording intervals... More about our weather records

Hannover Weather History for the Previous 24 Hours

Scroll right to see more
 ConditionsComfort  
Time TempWeatherWind HumidityBarometerVisibility
10:20 pm
Mon, Jan 27
45 °FPassing clouds.7 mph81%29.50 "HgN/A
9:50 pm45 °FPassing clouds.8 mph81%29.53 "HgN/A
9:20 pm45 °FPassing clouds.8 mph81%29.56 "HgN/A
8:50 pm45 °FPassing clouds.10 mph81%29.56 "HgN/A
8:20 pm45 °FLight rain. Passing clouds.8 mph87%29.56 "HgN/A
7:50 pm45 °FLight rain. Passing clouds.8 mph87%29.59 "HgN/A
7:20 pm45 °FLight rain. Partly cloudy.9 mph87%29.59 "HgN/A
6:50 pm45 °FLight rain. Passing clouds.9 mph87%29.62 "HgN/A
6:20 pm46 °FLight rain. Passing clouds.9 mph82%29.62 "HgN/A
5:50 pm46 °FLight rain. Passing clouds.10 mph82%29.62 "HgN/A
5:20 pm46 °FPassing clouds.6 mph82%29.65 "HgN/A
4:50 pm46 °FPartly sunny.7 mph82%29.65 "HgN/A
4:20 pm46 °FPartly sunny.9 mph82%29.68 "HgN/A
3:50 pm46 °FPartly sunny.7 mph82%29.68 "HgN/A
3:20 pm46 °FSprinkles. Partly sunny.10 mph82%29.68 "HgN/A
2:50 pm46 °FPartly sunny.10 mph82%29.71 "HgN/A
2:20 pm48 °FBroken clouds.9 mph76%29.71 "HgN/A
1:50 pm48 °FPartly sunny.10 mph76%29.71 "HgN/A
1:20 pm48 °FPartly sunny.14 mph76%29.71 "HgN/A
12:50 pm48 °FPartly sunny.13 mph76%29.74 "HgN/A
12:20 pm46 °FPartly sunny.12 mph76%29.74 "HgN/A
11:50 am46 °FPartly sunny.10 mph76%29.77 "HgN/A
11:20 am45 °FPartly sunny.12 mph81%29.77 "HgN/A
10:50 am45 °FPartly sunny.12 mph81%29.77 "HgN/A
10:20 am45 °FPartly sunny.12 mph81%29.77 "HgN/A
9:50 am43 °FLight rain. Broken clouds.9 mph87%29.77 "HgN/A
9:20 am43 °FLight rain. Partly sunny.8 mph87%29.80 "HgN/A
8:50 am43 °FLight rain. Partly sunny.9 mph87%29.80 "HgN/A
8:20 am43 °FLight rain. Broken clouds.7 mph87%29.80 "HgN/A
7:50 am41 °FLight rain. Partly cloudy.8 mph87%29.80 "HgN/A
7:20 am43 °FLight rain. Passing clouds.10 mph81%29.80 "HgN/A
6:50 am43 °FPassing clouds.12 mph81%29.80 "HgN/A
6:20 am41 °FPassing clouds.13 mph87%29.83 "HgN/A
5:50 am39 °FPassing clouds.8 mph87%29.83 "HgN/A
5:20 am39 °FPassing clouds.9 mph87%29.83 "HgN/A
4:50 am39 °FPassing clouds.9 mph87%29.86 "HgN/A
4:20 am39 °FPassing clouds.6 mph87%29.86 "HgN/A
3:50 am39 °FPassing clouds.7 mph87%29.86 "HgN/A
3:20 am39 °FPassing clouds.8 mph87%29.89 "HgN/A
2:50 am39 °FClear.8 mph87%29.89 "Hg10 mi
2:20 am37 °FPassing clouds.8 mph93%29.89 "HgN/A
1:50 am37 °FPassing clouds.7 mph93%29.89 "HgN/A
1:20 am39 °FPassing clouds.3 mph87%29.92 "HgN/A
12:50 am39 °FPassing clouds.5 mph87%29.92 "HgN/A
12:20 am39 °FPassing clouds.3 mph87%29.92 "HgN/A
11:50 pm
Sun, Jan 26
37 °FPassing clouds.5 mph93%29.92 "HgN/A
11:20 pm37 °FPassing clouds.6 mph93%29.92 "HgN/A
Weather by CustomWeather, © 2020

See weather overview

Advertising